Location: *
(29.1167°S, 130.0000°E)
Time: 14:38:24
(UTC+00:00)

Okean-O - Visible Passes

Search period start: 20 October 2019 00:00
Search period end: 30 October 2019 00:00
Orbit: 639 x 640 km, 98.2° (Epoch: 19 October)

Date Brightness Start Highest point End Pass type
(mag) Time Alt. Az. Time Alt. Az. Time Alt. Az.
21 Oct 3.5 10:08:08 10° S 10:12:32 56° WSW 10:16:53 10° NNW visible
22 Oct 4.9 10:31:56 10° SSW 10:35:49 29° WSW 10:39:40 10° NW visible
23 Oct 5.9 10:56:18 10° SSW 10:59:02 16° WSW 11:01:44 10° WNW visible
25 Oct 3.3 10:05:16 10° S 10:09:43 62° WSW 10:14:05 10° NNW visible
26 Oct 4.7 10:29:01 10° S 10:33:00 32° WSW 10:36:56 10° NW visible
27 Oct 5.8 10:53:15 10° SSW 10:56:13 18° WSW 10:59:10 10° WNW visible
29 Oct 3.1 10:02:24 10° S 10:06:52 69° WSW 10:11:17 10° NNW visible
